Regional Weather Roundup
Issued by NWS

Home | Current Version | Previous Version | Text Only | Print | Product List | Glossary On
Versions: 1 2 3 4 5 6 7 8 9 10 11 12 13 14 15 16 17 18 19 20 21 22 23 24 25 26 27 28 29 30 31 32 33 34 35 36 37 38 39 40 41 42 43 44 45 46 47 48 49 50
000
ASUS43 KMPX 280310
RWRMN
WEATHER ROUNDUP FOR MINNESOTA
NATIONAL WEATHER SERVICE TWIN CITIES/CHANHASSEN MN
1000 PM CDT WED JUL 27 2016


NOTE: "FAIR" INDICATES FEW OR NO CLOUDS BELOW 12,000 FEET WITH NO
SIGNIFICANT WEATHER AND/OR OBSTRUCTIONS TO VISIBILITY. N/A MEANS
CURRENT SKY AND/OR WEATHER CONDITIONS ARE NOT AVAILABLE.

MNZ060>063-068>070-280400-
   Twin Cities Metro

CITY           SKY/WX    TMP DP  RH WIND       PRES   REMARKS
TWIN CITIES    CLOUDY    70  64  81 N6        29.98R
ST PAUL        CLOUDY    70  65  84 N5        29.97R
CRYSTAL        CLOUDY    68  63  84 N8        29.98R
BLAINE         MOCLDY    70  68  94 N6        29.98R
LAKEVILLE      CLOUDY    70  66  88 N9        29.98R
EDEN PRAIRIE   CLOUDY    71  64  78 NW7       29.98R
LAKEVILLE      CLOUDY    70  66  88 N9        29.98R
SOUTH ST PAUL  CLOUDY    70  65  85 CALM      29.96R
LAKE ELMO      MOCLDY    68  64  88 N5        29.98R
$$
MNZ001>005-007-008-013>017-022>024-027-028-280400-
   Northwest Minnesota

CITY           SKY/WX    TMP DP  RH WIND       PRES   REMARKS
BEMIDJI        CLEAR     64  61  88 W3        30.05R
HALLOCK        PTCLDY    66  59  77 N10       30.09R
ROSEAU         CLOUDY    64  59  82 NE8       30.09R
WARROAD        CLEAR     68  59  73 N9        30.09R
THIEF RVR FALL CLOUDY    70  60  70 NE9       30.07R
CROOKSTON      CLOUDY    70  61  73 N10       30.07R
FOSSTON        CLOUDY    64  61  88 CALM      30.07R
DETROIT LAKES  PTCLDY    68  63  83 E5        30.07R
MOORHEAD       PTCLDY    66  61  82 N7        30.05R
PARK RAPIDS    CLOUDY    69  62  78 CALM      30.06R
MAHNOMEN       CLOUDY    68  63  85 CALM      30.05R
$$
MNZ006-009>011-018-025>026-280400-
   North Central Minnesota

CITY           SKY/WX    TMP DP  RH WIND       PRES   REMARKS
BAUDETTE       CLEAR     65  55  70 NE9       30.07R
FLAG ISLAND    CLEAR     66  55  68 NE10      30.09R
INTL FALLS     CLEAR     67  54  63 NE7       30.06R
WASKISH        CLOUDY    66  57  72 CALM      30.06R
BIG FORK       PTCLDY    61  59  94 CALM      30.05R
LONGVILLE      CLEAR     61  61 100 CALM      30.05R FOG
GRAND RAPIDS   CLEAR     62  61  96 CALM      30.06R
CRANE LAKE     CLEAR     57  57 100 CALM      30.07R
ORR            CLEAR     61  55  82 CALM      30.03R
COOK           PTCLDY    61  59  94 CALM      30.05R
WALKER         FAIR      61  60  96 CALM      30.05R
$$
MNZ012-019>021-037-280400-
   Northeast Minnesota

CITY           SKY/WX    TMP DP  RH WIND       PRES   REMARKS
DULUTH         CLEAR     57  57 100 SE5       30.04R
ELY            PTCLDY    61  61 100 CALM      30.06R
HIBBING        FOG       60  60 100 CALM      30.04R VSB 1/2
EVELETH        PTCLDY    63  62  96 CALM      30.06R
DULUTH HARBOR  CLEAR     63  59  88 NE13      30.04R
TWO HARBORS    CLEAR     63  57  82 N3        30.03R
SILVER BAY     CLOUDY    61  57  88 CALM      30.03S
GRAND MARAIS     N/A     60  56  86 CALM      30.04R
$$
MNZ029>031-032-039>041-046>048-054>057-064-280400-
   West Central Minnesota

CITY           SKY/WX    TMP DP  RH WIND       PRES   REMARKS
FERGUS FALLS   PTCLDY    64  59  82 NW7       30.05R
WHEATON        CLEAR     66  61  82 W5        30.06R
MORRIS         CLEAR     66  59  77 NW7       30.03R
ALEXANDRIA     MOCLDY    69  63  81 NE6       30.05R
ELBOW LAKE     MOCLDY    66  60  80 W8        30.04R
WADENA         CLOUDY    66  63  88 E5        30.05R
GLENWOOD       RAIN      68  64  88 CALM      30.04R
APPLETON       CLEAR     68  61  77 N6        30.03R
BENSON         CLEAR     64  59  82 N5        30.03R
ORTONVILLE     CLEAR     68  57  68 N7        30.04R
MADISON        CLEAR     68  61  77 NW7       30.04R
WILLMAR        FAIR      70  64  83 NW3       30.03R
$$
MNZ033>034-036-042>043-049>051-058-059-280400-
   Central Minnesota

CITY           SKY/WX    TMP DP  RH WIND       PRES   REMARKS
ST CLOUD       CLOUDY    66  63  90 NE7       30.03R
SAUK CENTRE    FAIR      67  63  86 NE7       30.03S
PAYNESVILLE    CLEAR     67  65  93 NE3       30.02S
AITKIN         CLEAR     61  55  82 CALM      30.03R
PINE RIVER     MOCLDY    64  63  94 CALM      30.08R
BRAINERD       CLEAR     64  62  93 NW5       30.05R
STAPLES        MOCLDY    64  61  88 CALM      30.06R
LONG PRAIRIE   CLOUDY    64  63  94 N3        30.05R
LITTLE FALLS   CLOUDY    66  61  82 CALM      30.04R
LITCHFIELD     CLEAR     70  66  88 NE6       30.01S
BUFFALO        CLOUDY    68  62  82 NW6       30.03R
MAPLE LAKE     MOCLDY    68  65  88 N6        30.03R
HUTCHINSON     PTCLDY    70  66  88 NE6       30.00S
$$
MNZ037-044-045-052-053-280400-
   East Central Minnesota

CITY           SKY/WX    TMP DP  RH WIND       PRES   REMARKS
PRINCETON      CLOUDY    64  63  94 N7        30.02R
MORA           CLOUDY    59  57  94 CALM      30.03R
CAMBRIDGE      CLOUDY    66  61  82 N5        29.98R
RUSH CITY      RAIN      64  62  94 NE5       30.00R
MOOSE LAKE     PTCLDY    61  55  82 NE7       30.01S
HINCKLEY       CLOUDY    61  61 100 NE7       30.01S
CLOQUET        CLEAR     59  55  88 CALM      30.04S
MCGREGOR       CLEAR     61  59  94 CALM      30.03S
$$
MNZ071>073-080-081-089-090-097-098-280400-
   Southwest Minnesota

CITY           SKY/WX    TMP DP  RH WIND       PRES   REMARKS
MONTEVIDEO     CLEAR     70  61  73 N9        30.04R
GRANITE FALLS  PTCLDY    71  65  81 NW7       30.04R
CANBY          CLEAR     67  60  77 NW7       30.06R
MARSHALL       MOCLDY    67  64  90 NW7       30.04R
REDWOOD FALLS  CLEAR     69  65  86 NW5       30.00R
OLIVIA         CLEAR     70  64  83 NW3       30.00R
PIPESTONE      CLOUDY    70  63  78 N5        30.06R
WINDOM         PTCLDY    68  64  88 NW5       30.02R
WORTHINGTON    CLEAR     68  64  87 N7        30.04R
JACKSON        CLEAR     68  63  83 NW3       30.03R
TRACY          CLEAR     69  65  87 NW5       30.04R
SLAYTON        CLEAR     66  64  91 NW5       30.06R
$$
MNZ065>067-074>077-082>085-091>093-280400-
   South Central Minnesota

CITY           SKY/WX    TMP DP  RH WIND       PRES   REMARKS
MANKATO        CLEAR     70  63  78 N7        29.98R
NEW ULM        CLEAR     70  66  88 NW3       29.99R
ST JAMES       CLEAR     63  61  94 CALM      30.00R
FAIRMONT       PTCLDY    68  64  88 NW5       29.98R
GLENCOE        CLEAR     69  66  91 N7        29.99R
FARIBAULT      MOCLDY    70  66  88 N5        29.98R
OWATONNA       PTCLDY    70  66  88 NW5       29.97R
WASECA         CLEAR     64  63  94 CALM      29.98R
ALBERT LEA     CLEAR     70  66  88 CALM      29.96R
$$
MNZ078>079-086>088-094>096-280400-
   Southeast Minnesota

CITY           SKY/WX    TMP DP  RH WIND       PRES   REMARKS
ROCHESTER      PTCLDY    68  67  96 NW8       29.96R
RED WING       CLOUDY    70  66  88 NE6       29.94R
STANTON        PTCLDY    70  66  88 VRB7      29.95R
DODGE CENTER   MOCLDY    66  64  94 NW6       29.96R
WINONA         CLOUDY    73  72  94 NW3       29.93S
AUSTIN         CLEAR     70  64  83 CALM      29.95R
PRESTON        CLOUDY    71  67  88 CALM      29.96R
$$
ABBREVIATIONS USED IN REMARKS
   TC - TEMPERATURES IN CELSIUS
  WCI - WIND CHILL INDEX
   HX - HEAT INDEX
  VSB - VISIBILITY
$$




USA.gov is the U.S. government's official web portal to all federal, state and local government web resources and services.